Le nostre stazioni meteo in Italia

Pubblicità
Il mio iltempo24.it
Paganella, Italia (16022): Temperatura & dewpoint: 11.02.2019 13:00:00 - 17.02.2019 13:00:00 (CET)Paganella, Italia (16022): velocità del vento: 11.02.2019 13:00:00 - 17.02.2019 13:00:00 (CET)Paganella, Italia (16022): direzione del vento: 11.02.2019 13:00:00 - 17.02.2019 13:00:00 (CET)Paganella, Italia (16022): visibility: 11.02.2019 13:00:00 - 17.02.2019 13:00:00 (CET)Paganella, Italia (16022): ore di luce: 11.02.2019 13:00:00 - 17.02.2019 13:00:00 (CET)
Data & Tempo tt [°C] td [°C] ff [km/h] ff [kn] dd vv [km] sd [min]
17.02.2019 13:00:00 3,4 -19,4 5 3 N 75 60
17.02.2019 12:00:00 3,0 -19,7 4 2 N 75 60
17.02.2019 11:00:00 3,0 -19,7 4 2 N 75 60
17.02.2019 10:00:00 2,8 -20,6 4 2 N 75 60
17.02.2019 09:00:00 2,0 -20,5 4 2 NNE 75 60
17.02.2019 08:00:00 1,0 -21,3 8 4 E 75 60
17.02.2019 07:00:00 1,0 -21,3 9 5 E 60 -
17.02.2019 06:00:00 1,4 -20,3 11 6 E 60 -
17.02.2019 05:00:00 1,8 -20,7 18 10 E 60 -
17.02.2019 04:00:00 2,0 -20,5 15 8 S 60 -
17.02.2019 03:00:00 2,0 -20,5 11 6 S 60 -
17.02.2019 02:00:00 2,4 -20,9 11 6 S 60 -
17.02.2019 01:00:00 2,4 -20,9 9 5 S 75 -
17.02.2019 00:00:00 2,2 -22,6 8 4 S 75 -
16.02.2019 23:00:00 2,3 -24,2 5 3 S 75 -
16.02.2019 22:00:00 2,4 -23,3 5 3 S 75 -
16.02.2019 21:00:00 3,0 -21,1 5 3 S 75 -
16.02.2019 20:00:00 3,5 -20,7 0 0 N 75 0
16.02.2019 19:00:00 4,0 -21,1 5 3 OSO 75 0
16.02.2019 18:00:00 5,0 -18,8 5 3 SSO 75 18
16.02.2019 17:00:00 5,0 -17,4 4 2 NNE 75 60
16.02.2019 16:00:00 5,4 -15,8 8 4 E 75 60
16.02.2019 15:00:00 5,0 -17,4 11 6 E 75 60
16.02.2019 14:00:00 5,0 -17,4 9 5 SO 75 60
16.02.2019 13:00:00 5,0 -17,4 8 4 E 75 60
16.02.2019 12:00:00 5,0 -17,4 11 6 SO 75 60
16.02.2019 11:00:00 5,0 -21,2 4 2 NNO 75 60
16.02.2019 10:00:00 3,2 -20,2 8 4 NNO 75 60
16.02.2019 09:00:00 2,4 -20,9 11 6 N 75 60
16.02.2019 08:00:00 2,0 -21,2 5 3 N 70 24
16.02.2019 07:00:00 1,2 -20,5 5 3 N 60 -
16.02.2019 06:00:00 1,0 -19,5 9 5 S 40 -
16.02.2019 05:00:00 1,0 -20,1 9 5 S 40 -
16.02.2019 04:00:00 1,3 -20,4 8 4 S 30 -
16.02.2019 03:00:00 2,0 -19,9 26 14 NNO 30 -
16.02.2019 02:00:00 2,0 -18,6 26 14 N 30 -
16.02.2019 01:00:00 2,0 -18,6 18 10 N 30 -
16.02.2019 00:00:00 2,2 -19,7 18 10 N 30 -
15.02.2019 23:00:00 2,4 -19,5 22 12 NNO 30 -
15.02.2019 22:00:00 2,6 -19,4 28 15 NNO 30 -
15.02.2019 21:00:00 3,0 -19,0 29 16 NO 30 -
15.02.2019 20:00:00 3,0 -19,0 26 14 NNO 60 -
15.02.2019 19:00:00 3,3 -18,8 18 10 N 60 0
15.02.2019 18:00:00 3,2 -18,9 26 14 N 75 18
15.02.2019 17:00:00 3,8 -18,4 22 12 N 75 60
15.02.2019 16:00:00 4,0 -18,9 26 14 N 75 60
15.02.2019 15:00:00 4,8 -19,7 15 8 NNO 75 60
15.02.2019 14:00:00 4,0 -19,6 18 10 N 75 60
15.02.2019 13:00:00 3,9 -20,4 22 12 N 75 60
15.02.2019 12:00:00 3,8 -20,5 28 15 N 75 60
15.02.2019 11:00:00 3,0 -21,1 15 8 NNO 75 60
15.02.2019 10:00:00 2,4 -21,6 22 12 N 75 60
15.02.2019 09:00:00 2,8 -22,1 24 13 N 75 60
15.02.2019 08:00:00 2,4 -22,4 22 12 N 75 24
15.02.2019 07:00:00 2,4 -23,3 11 6 NNO 75 -
15.02.2019 06:00:00 2,0 -22,7 5 3 N 75 -
15.02.2019 05:00:00 1,8 -22,9 11 6 NNE 75 -
15.02.2019 04:00:00 1,8 -21,4 11 6 NNE 75 -
15.02.2019 03:00:00 1,4 -24,1 11 6 NNE 60 -
15.02.2019 02:00:00 1,4 -24,1 15 8 NNE 60 -
15.02.2019 01:00:00 2,0 -19,9 13 7 N 60 -
15.02.2019 00:00:00 2,0 -19,2 13 7 NNE 60 -
14.02.2019 23:00:00 1,4 -18,6 11 6 NNE 60 -
14.02.2019 22:00:00 1,2 -18,2 9 5 NNE 70 -
14.02.2019 21:00:00 1,7 -17,8 8 4 NNE 75 -
14.02.2019 20:00:00 1,4 -17,0 8 4 N 75 -
14.02.2019 19:00:00 2,2 -16,8 9 5 N 75 0
14.02.2019 18:00:00 3,0 -18,4 9 5 N 75 30
14.02.2019 17:00:00 3,0 -19,0 11 6 N 70 60
14.02.2019 16:00:00 3,0 -17,8 9 5 N 75 60
14.02.2019 15:00:00 3,0 -18,4 11 6 NNO 75 60
14.02.2019 14:00:00 2,8 -18,6 8 4 N 75 48
14.02.2019 13:00:00 2,2 -18,5 8 4 N 75 60
14.02.2019 12:00:00 2,2 -19,7 13 7 N 75 60
14.02.2019 11:00:00 2,2 -19,7 15 8 N 80 60
14.02.2019 10:00:00 1,8 -18,8 18 10 N 80 48
14.02.2019 09:00:00 1,2 -16,7 31 17 NNE 75 48
14.02.2019 08:00:00 1,2 -15,7 18 10 NNE 75 0
14.02.2019 07:00:00 1,2 -16,2 13 7 N 75 -
14.02.2019 06:00:00 1,0 -14,6 8 4 N 75 -
14.02.2019 05:00:00 0,2 -12,1 4 2 N 75 -
14.02.2019 04:00:00 -0,2 -11,3 11 6 SSO 75 -
14.02.2019 03:00:00 0,0 -11,1 8 4 SSO 80 -
14.02.2019 02:00:00 -0,2 -11,6 5 3 SSO 80 -
14.02.2019 01:00:00 0,0 -11,4 5 3 N 80 -
14.02.2019 00:00:00 0,0 -10,8 8 4 N 80 -
13.02.2019 23:00:00 -0,2 -10,7 11 6 N 80 -
13.02.2019 22:00:00 -0,8 -9,9 26 14 N 80 -
13.02.2019 21:00:00 -0,6 -9,7 29 16 N 80 -
13.02.2019 20:00:00 -1,0 -10,1 34 18 N 80 -
13.02.2019 19:00:00 -0,8 -10,2 34 18 N 75 0
13.02.2019 18:00:00 -1,0 -11,2 28 15 N 75 -
13.02.2019 17:00:00 -0,4 -10,9 26 14 N 75 60
13.02.2019 16:00:00 -0,6 -11,3 22 12 N 75 60
13.02.2019 15:00:00 -0,4 -12,7 18 10 N 75 60
13.02.2019 14:00:00 -0,6 -11,3 16 9 NNO 75 60
13.02.2019 13:00:00 -3,0 -12,2 18 10 N 75 60
13.02.2019 12:00:00 -3,2 -11,9 34 18 NNE 75 60
13.02.2019 11:00:00 -3,6 -13,0 9 5 N 80 60
13.02.2019 10:00:00 -4,0 -14,2 9 5 N 80 60
13.02.2019 09:00:00 -4,0 -14,7 11 6 N 80 60
13.02.2019 08:00:00 -4,0 -16,2 8 4 N 80 12
13.02.2019 07:00:00 -4,0 -16,9 11 6 N 80 -
13.02.2019 06:00:00 -3,8 -17,0 11 6 N 80 -
13.02.2019 05:00:00 -3,2 -16,5 15 8 N 80 -
13.02.2019 04:00:00 -4,0 -16,5 15 8 N 80 -
13.02.2019 03:00:00 -5,0 -15,9 22 12 ESE 75 -
13.02.2019 02:00:00 -5,0 -16,2 24 13 N 75 -
13.02.2019 01:00:00 -5,0 -15,9 29 16 N 75 -
13.02.2019 00:00:00 -6,0 -16,0 31 17 N 75 -
12.02.2019 23:00:00 -6,4 -15,1 29 16 N 75 -
12.02.2019 22:00:00 -6,8 -15,5 34 18 N 75 -
12.02.2019 21:00:00 -7,0 -15,7 29 16 N 80 -
12.02.2019 20:00:00 -6,8 -15,5 41 22 NNE 75 -
12.02.2019 19:00:00 -6,8 -16,7 34 18 N 80 0
12.02.2019 18:00:00 -6,6 -17,1 41 22 N 80 30
12.02.2019 17:00:00 -6,0 -17,4 44 24 N 80 60
12.02.2019 16:00:00 -6,0 -16,8 48 26 N 80 60
12.02.2019 15:00:00 -6,0 -16,3 52 28 N 80 60
12.02.2019 14:00:00 -6,2 -15,9 52 28 N 80 60
12.02.2019 13:00:00 -7,0 -15,4 55 30 N 80 60
12.02.2019 12:00:00 -8,0 -15,0 65 35 N 75 60
12.02.2019 11:00:00 -8,6 -15,0 41 22 N 80 60
12.02.2019 10:00:00 -9,2 -16,0 54 29 NNE 80 60
12.02.2019 09:00:00 -9,1 -16,5 50 27 NNE 70 60
12.02.2019 08:00:00 -9,3 -16,5 42 23 N 70 30
12.02.2019 07:00:00 -9,2 -16,4 44 24 N 70 -
12.02.2019 06:00:00 -9,4 -16,1 48 26 NNE 80 -
12.02.2019 05:00:00 -9,6 -15,7 52 28 NNE 80 -
12.02.2019 04:00:00 -9,7 -15,4 42 23 NNE 50 -
12.02.2019 03:00:00 -9,4 -15,5 35 19 NNE 50 -
12.02.2019 02:00:00 -9,5 -15,6 37 20 NNE 50 -
12.02.2019 01:00:00 -9,6 -15,5 34 18 NNE 50 -
12.02.2019 00:00:00 -9,6 -15,3 44 24 NNE 50 -
11.02.2019 23:00:00 -9,7 -15,4 44 24 N 50 -
11.02.2019 22:00:00 -9,8 -15,5 39 21 N 50 -
11.02.2019 21:00:00 -9,8 -15,1 29 16 NNE 50 -
11.02.2019 20:00:00 -9,6 -15,0 44 24 NNE 50 -
11.02.2019 19:00:00 -9,4 -14,8 44 24 N 80 0
11.02.2019 18:00:00 -9,3 -14,7 50 27 NNE 70 0
11.02.2019 17:00:00 -9,0 -14,4 46 25 NNE 70 60
11.02.2019 16:00:00 -8,5 -13,7 37 20 NNE 80 60
11.02.2019 15:00:00 -8,4 -13,4 41 22 NNE 80 60
11.02.2019 14:00:00 -8,6 -13,1 46 25 N 80 48
11.02.2019 13:00:00 -8,4 -12,2 44 24 NNE 80 60

tt = Temperatura
td = dewpoint
ff = velocità del vento
dd = direzione del vento
vv = visibility
sd = ore di luce

Stazioni seguenti

WeatherPro
AMSI
MeteoEarth